PCX3201 LEMD-LUKK

Flight info

Callsign PCX3201
Flight time N/A
Altitude 36000
Route RBO DCT PONEN DCT EKSID DCT BARPI DCT KOPRY DCT BUDOP DCT BAPGU DCT BUSES
Aircraft A20N/M-SDE2E3FGHIRWXY/LB1

Departure

Time N/A
Airport Adolfo Suárez Madrid–Barajas Airport (LEMD)

Arrival

Time 2026-04-28 11:27
Airport Chişinău International Airport (LUKK)
Time Latitude Longitude Altitude Speed Heading
2026-04-28 10:51 46.78465 24.94328 36131 ft 498 kts 86°
2026-04-28 10:52 46.78529 24.99438 36128 ft 498 kts 86°
2026-04-28 10:52 46.78651 25.09549 36125 ft 498 kts 86°
2026-04-28 10:53 46.78765 25.19651 36122 ft 498 kts 86°
2026-04-28 10:53 46.78869 25.29714 36114 ft 500 kts 86°
2026-04-28 10:54 46.78968 25.39845 36110 ft 499 kts 86°
2026-04-28 10:54 46.79051 25.49958 36109 ft 499 kts 86°
2026-04-28 10:55 46.79129 25.60096 36112 ft 500 kts 86°
2026-04-28 10:55 46.79198 25.70230 36097 ft 499 kts 86°
2026-04-28 10:56 46.79257 25.80345 36104 ft 499 kts 87°
2026-04-28 10:56 46.79309 25.90480 36108 ft 500 kts 87°
2026-04-28 10:57 46.79351 26.00645 36109 ft 500 kts 87°
2026-04-28 10:57 46.79381 26.10686 36109 ft 479 kts 87°
2026-04-28 10:57 46.79388 26.15474 36105 ft 468 kts 87°
2026-04-28 10:58 46.79395 26.20222 36115 ft 469 kts 87°
2026-04-28 10:58 46.79412 26.29822 36122 ft 476 kts 87°
2026-04-28 10:59 46.79423 26.39466 36126 ft 473 kts 87°
2026-04-28 10:59 46.79422 26.49018 36123 ft 474 kts 87°
2026-04-28 11:00 46.79414 26.58666 36126 ft 475 kts 87°
2026-04-28 11:00 46.79397 26.68302 36132 ft 474 kts 87°
2026-04-28 11:01 46.79371 26.77942 35843 ft 475 kts 87°
2026-04-28 11:01 46.79352 26.82744 35285 ft 472 kts 87°
2026-04-28 11:01 46.79327 26.87528 34614 ft 470 kts 87°
2026-04-28 11:01 46.79299 26.92287 33968 ft 467 kts 86°
2026-04-28 11:02 46.79272 26.96994 33285 ft 462 kts 86°
2026-04-28 11:02 46.79246 27.01667 32647 ft 458 kts 86°
2026-04-28 11:02 46.79222 27.06283 32035 ft 453 kts 86°
2026-04-28 11:02 46.79198 27.10860 31419 ft 449 kts 86°
2026-04-28 11:03 46.79172 27.15393 30819 ft 445 kts 86°
2026-04-28 11:03 46.79142 27.19884 30218 ft 441 kts 86°
2026-04-28 11:03 46.79130 27.24281 29582 ft 435 kts 82°
2026-04-28 11:03 46.79453 27.28615 28979 ft 425 kts 75°
2026-04-28 11:04 46.79975 27.32818 28388 ft 418 kts 73°
2026-04-28 11:04 46.80565 27.36941 27777 ft 413 kts 72°
2026-04-28 11:04 46.81187 27.41003 27213 ft 407 kts 72°
2026-04-28 11:04 46.81822 27.45002 26654 ft 402 kts 72°
2026-04-28 11:05 46.82464 27.48954 26101 ft 398 kts 72°
2026-04-28 11:05 46.83108 27.52866 25553 ft 393 kts 72°
2026-04-28 11:05 46.83747 27.56721 25015 ft 389 kts 72°
2026-04-28 11:05 46.84385 27.60549 24498 ft 385 kts 72°
2026-04-28 11:06 46.85014 27.64330 23999 ft 381 kts 73°
2026-04-28 11:06 46.85636 27.68074 23436 ft 378 kts 73°
2026-04-28 11:06 46.86252 27.71788 22829 ft 374 kts 73°
2026-04-28 11:06 46.86858 27.75465 22240 ft 371 kts 73°
2026-04-28 11:07 46.87458 27.79117 21673 ft 370 kts 73°
2026-04-28 11:07 46.88064 27.82796 21459 ft 369 kts 73°
2026-04-28 11:07 46.88655 27.86409 21031 ft 364 kts 73°
2026-04-28 11:07 46.89242 27.89993 20453 ft 362 kts 73°
2026-04-28 11:08 46.89824 27.93555 19912 ft 359 kts 73°
2026-04-28 11:08 46.90403 27.97093 19371 ft 356 kts 74°
2026-04-28 11:08 46.90974 28.00602 18851 ft 354 kts 74°
2026-04-28 11:08 46.91540 28.04092 18326 ft 351 kts 73°
2026-04-28 11:09 46.92251 28.07476 17767 ft 346 kts 66°
2026-04-28 11:09 46.93135 28.10721 17252 ft 340 kts 63°
2026-04-28 11:09 46.94079 28.13872 16729 ft 336 kts 62°
2026-04-28 11:09 46.95052 28.16964 16208 ft 333 kts 61°
2026-04-28 11:10 46.96040 28.20009 15705 ft 329 kts 60°
2026-04-28 11:10 46.97036 28.23004 15221 ft 325 kts 60°
2026-04-28 11:10 46.98019 28.25920 14745 ft 322 kts 60°
2026-04-28 11:10 46.99011 28.28838 14298 ft 319 kts 60°
2026-04-28 11:11 47.00001 28.31728 13805 ft 316 kts 60°
2026-04-28 11:11 47.00983 28.34589 13277 ft 313 kts 60°
2026-04-28 11:11 47.01960 28.37424 12769 ft 310 kts 60°
2026-04-28 11:11 47.02929 28.40229 12249 ft 307 kts 60°
2026-04-28 11:12 47.03890 28.43011 11779 ft 304 kts 60°
2026-04-28 11:12 47.04843 28.45769 11294 ft 301 kts 60°
2026-04-28 11:12 47.05785 28.48501 10826 ft 299 kts 60°
2026-04-28 11:12 47.06707 28.51171 10614 ft 286 kts 60°
2026-04-28 11:13 47.07581 28.53719 10460 ft 273 kts 60°
2026-04-28 11:13 47.08413 28.56159 10291 ft 262 kts 60°
2026-04-28 11:13 47.09218 28.58516 10021 ft 256 kts 60°
2026-04-28 11:13 47.10019 28.60850 9639 ft 255 kts 60°
2026-04-28 11:14 47.10814 28.63164 9248 ft 253 kts 60°
2026-04-28 11:14 47.11601 28.65457 8894 ft 251 kts 60°
2026-04-28 11:14 47.12380 28.67734 8522 ft 249 kts 60°
2026-04-28 11:14 47.13160 28.70003 8247 ft 253 kts 60°
2026-04-28 11:15 47.13946 28.72293 8110 ft 247 kts 61°
2026-04-28 11:15 47.14701 28.74504 8059 ft 244 kts 61°
2026-04-28 11:15 47.15213 28.76012 8049 ft 245 kts 61°
2026-04-28 11:15 47.16222 28.78973 8023 ft 245 kts 61°
2026-04-28 11:16 47.16982 28.81213 8022 ft 244 kts 60°
2026-04-28 11:16 47.17723 28.83462 8016 ft 245 kts 70°
2026-04-28 11:16 47.17803 28.85947 8071 ft 251 kts 110°
2026-04-28 11:16 47.17279 28.87487 8080 ft 250 kts 124°
2026-04-28 11:17 47.16357 28.89631 8034 ft 247 kts 121°
2026-04-28 11:17 47.15642 28.91921 8011 ft 247 kts 108°
2026-04-28 11:17 47.15203 28.94375 7813 ft 247 kts 102°
2026-04-28 11:17 47.14839 28.96841 7455 ft 246 kts 102°
2026-04-28 11:18 47.14485 28.99252 7133 ft 244 kts 102°
2026-04-28 11:18 47.14043 29.01657 6787 ft 242 kts 109°
2026-04-28 11:18 47.13442 29.03958 6444 ft 241 kts 114°
2026-04-28 11:18 47.12723 29.06181 6187 ft 240 kts 118°
2026-04-28 11:19 47.11924 29.08308 6081 ft 236 kts 122°
2026-04-28 11:19 47.10995 29.10303 6045 ft 237 kts 128°
2026-04-28 11:19 47.09956 29.12187 6034 ft 237 kts 133°
2026-04-28 11:19 47.08851 29.13966 6033 ft 236 kts 135°
2026-04-28 11:20 47.07667 29.15631 6028 ft 235 kts 141°
2026-04-28 11:20 47.06393 29.17121 6010 ft 234 kts 146°
2026-04-28 11:20 47.05048 29.18486 5916 ft 235 kts 149°
2026-04-28 11:20 47.03670 29.19739 5645 ft 232 kts 153°
2026-04-28 11:21 47.02224 29.20804 5279 ft 232 kts 158°
2026-04-28 11:21 47.00772 29.21660 5149 ft 220 kts 161°
2026-04-28 11:21 46.99317 29.22392 4634 ft 223 kts 163°
2026-04-28 11:21 46.97835 29.23046 4301 ft 221 kts 166°
2026-04-28 11:22 46.96345 29.23549 3956 ft 218 kts 171°
2026-04-28 11:22 46.94843 29.23821 3519 ft 216 kts 188°
2026-04-28 11:22 46.93592 29.22917 3262 ft 197 kts 235°
2026-04-28 11:22 46.93201 29.21116 3114 ft 187 kts 269°
2026-04-28 11:23 46.93159 29.19233 3046 ft 186 kts 272°
2026-04-28 11:23 46.93155 29.17443 3023 ft 173 kts 273°
2026-04-28 11:23 46.93168 29.15661 3036 ft 175 kts 273°
2026-04-28 11:23 46.93183 29.13860 2851 ft 179 kts 273°
2026-04-28 11:24 46.93168 29.12084 2591 ft 163 kts 272°
2026-04-28 11:24 46.93140 29.10570 2370 ft 140 kts 271°
2026-04-28 11:24 46.93111 29.09173 2170 ft 136 kts 272°
2026-04-28 11:24 46.93081 29.07791 1968 ft 139 kts 271°
2026-04-28 11:25 46.93055 29.06390 1801 ft 138 kts 272°
2026-04-28 11:25 46.93022 29.05014 1602 ft 137 kts 272°
2026-04-28 11:25 46.93000 29.03619 1402 ft 136 kts 270°
2026-04-28 11:25 46.92965 29.02263 1224 ft 134 kts 270°
2026-04-28 11:26 46.92923 29.00859 1043 ft 139 kts 272°
2026-04-28 11:26 46.92906 28.99475 828 ft 134 kts 271°
2026-04-28 11:26 46.92879 28.98092 664 ft 138 kts 272°
2026-04-28 11:26 46.92851 28.96721 500 ft 136 kts 274°
2026-04-28 11:27 46.92828 28.95328 336 ft 137 kts 272°
2026-04-28 11:27 46.92804 28.93985 328 ft 120 kts 274°
2026-04-28 11:27 46.92780 28.93093 348 ft 53 kts 270°
2026-04-28 11:27 46.92773 28.92706 359 ft 30 kts 267°
2026-04-28 11:28 46.92768 28.92466 365 ft 18 kts 268°
2026-04-28 11:28 46.92764 28.92302 370 ft 16 kts 270°
2026-04-28 11:28 46.92763 28.92135 372 ft 16 kts 268°
2026-04-28 11:28 46.92792 28.92016 375 ft 10 kts 333°
2026-04-28 11:29 46.92869 28.91996 374 ft 13 kts 358°
2026-04-28 11:29 46.92971 28.91991 374 ft 16 kts 359°
2026-04-28 11:29 46.93092 28.91989 374 ft 19 kts
2026-04-28 11:29 46.93229 28.92037 373 ft 21 kts 30°
2026-04-28 11:30 46.93250 28.92246 368 ft 25 kts 97°
2026-04-28 11:30 46.93267 28.92721 358 ft 20 kts 20°
2026-04-28 11:30 46.93408 28.92751 355 ft 18 kts 12°
2026-04-28 11:31 46.93474 28.92858 356 ft 17 kts 88°
2026-04-28 11:31 46.93461 28.93059 347 ft 23 kts 101°
2026-04-28 11:31 46.93438 28.93323 338 ft 29 kts 95°
2026-04-28 11:31 46.93366 28.93475 336 ft 18 kts 186°
2026-04-28 11:32 46.93316 28.93537 336 ft 0 kts 99°
2026-04-28 11:32 46.93316 28.93538 336 ft 1 kts 99°
2026-04-28 11:32 46.93309 28.93595 333 ft 10 kts 99°
2026-04-28 11:32 46.93308 28.93697 332 ft 1 kts 71°
2026-04-28 11:33 46.93322 28.93719 329 ft 6 kts 35°
2026-04-28 11:33 46.93349 28.93726 331 ft 1 kts
2026-04-28 11:33 46.93353 28.93726 329 ft 0 kts